Time,TemperatureF,DewpointF,PressureIn,WindDirection,WindDirectionDegrees,WindSpeedMPH,WindSpeedGustMPH,Humidity,HourlyPrecipIn,Conditions,Clouds,dailyrainin,SoftwareType,DateUTC
2013-02-12 00:00:00,34.7,34.2,29.56,NNW,338,0.0,1.1,98,0.00,,OVC,0.00,VWS V14.01,2013-02-12 05:00:00,
2013-02-12 00:05:00,34.9,34.4,29.53,NNW,338,2.9,3.8,98,0.00,,OVC,0.00,VWS V14.01,2013-02-12 05:05:00,
2013-02-12 00:10:00,34.9,34.4,29.53,North,0,0.0,0.0,98,0.00,,OVC,0.00,VWS V14.01,2013-02-12 05:10:00,
2013-02-12 00:15:00,34.7,34.2,29.53,North,0,0.0,0.0,98,0.00,,OVC,0.00,VWS V14.01,2013-02-12 05:15:00,
2013-02-12 00:20:00,34.7,34.2,29.53,North,0,0.0,0.0,98,0.00,,OVC,0.00,VWS V14.01,2013-02-12 05:20:00,
2013-02-12 00:25:00,34.7,34.2,29.53,North,0,0.0,0.0,98,0.00,,OVC,0.00,VWS V14.01,2013-02-12 05:25:00,
2013-02-12 00:30:00,34.0,33.5,29.53,North,0,0.0,0.0,98,0.00,,OVC,0.00,VWS V14.01,2013-02-12 05:30:00,
2013-02-12 00:36:00,33.8,33.3,29.50,North,0,0.0,0.0,98,0.00,,OVC,0.00,VWS V14.01,2013-02-12 05:36:00,
2013-02-12 00:41:00,33.6,33.1,29.50,North,0,0.0,0.0,98,0.00,,OVC,0.00,VWS V14.01,2013-02-12 05:41:00,
2013-02-12 00:46:00,33.6,33.1,29.50,North,0,0.0,0.0,98,0.00,,OVC,0.00,VWS V14.01,2013-02-12 05:46:00,
2013-02-12 00:51:00,33.8,33.3,29.50,NNW,338,0.0,1.6,98,0.00,,OVC,0.00,VWS V14.01,2013-02-12 05:51:00,
2013-02-12 00:56:00,34.0,33.5,29.50,NNW,338,0.0,2.7,98,0.00,,OVC,0.00,VWS V14.01,2013-02-12 05:56:00,
2013-02-12 01:00:00,34.0,33.5,29.50,NNW,338,0.0,2.5,98,0.00,,OVC,0.00,VWS V14.01,2013-02-12 06:00:00,
2013-02-12 01:01:00,34.0,33.5,29.50,NNW,338,0.0,1.6,98,0.00,,OVC,0.00,VWS V14.01,2013-02-12 06:01:00,
2013-02-12 01:06:00,34.0,33.5,29.53,NNW,338,1.1,1.1,98,0.00,,OVC,0.00,VWS V14.01,2013-02-12 06:06:00,
2013-02-12 01:11:00,34.0,33.5,29.53,NNW,338,1.1,1.1,98,0.00,,OVC,0.00,VWS V14.01,2013-02-12 06:11:00,
2013-02-12 01:16:00,33.8,33.3,29.53,NNW,338,0.0,0.0,98,0.00,,OVC,0.00,VWS V14.01,2013-02-12 06:16:00,
2013-02-12 01:21:00,33.8,33.3,29.53,NNW,338,0.0,1.3,98,0.00,,OVC,0.00,VWS V14.01,2013-02-12 06:21:00,
2013-02-12 01:26:00,33.8,33.3,29.53,NNW,338,0.0,0.0,98,0.00,,OVC,0.00,VWS V14.01,2013-02-12 06:26:00,
2013-02-12 01:30:00,33.8,33.3,29.53,NNW,338,0.0,0.0,98,0.00,,OVC,0.00,VWS V14.01,2013-02-12 06:30:00,
2013-02-12 01:31:00,33.8,33.3,29.53,NNW,338,0.0,0.0,98,0.00,,OVC,0.00,VWS V14.01,2013-02-12 06:31:00,
2013-02-12 01:36:00,33.8,33.3,29.50,NNW,338,3.1,3.6,98,0.00,,OVC,0.00,VWS V14.01,2013-02-12 06:36:00,
2013-02-12 01:41:00,33.6,33.1,29.50,NNW,338,0.0,0.0,98,0.00,,OVC,0.00,VWS V14.01,2013-02-12 06:41:00,
2013-02-12 01:46:00,33.6,33.1,29.50,NNW,338,0.0,0.0,98,0.00,,OVC,0.00,VWS V14.01,2013-02-12 06:46:00,
2013-02-12 01:51:00,33.6,33.1,29.50,NNW,338,1.3,1.6,98,0.00,,OVC,0.00,VWS V14.01,2013-02-12 06:51:00,
2013-02-12 01:56:00,33.6,33.1,29.50,NNW,338,0.0,0.0,98,0.00,,OVC,0.00,VWS V14.01,2013-02-12 06:56:00,
2013-02-12 02:00:00,33.6,33.1,29.50,NNW,338,2.5,2.5,98,0.00,,OVC,0.00,VWS V14.01,2013-02-12 07:00:00,
2013-02-12 02:01:00,33.6,33.1,29.50,NNW,338,1.1,2.7,98,0.00,,OVC,0.00,VWS V14.01,2013-02-12 07:01:00,
2013-02-12 02:06:00,33.6,33.1,29.50,NNW,338,0.0,2.5,98,0.00,,OVC,0.00,VWS V14.01,2013-02-12 07:06:00,
2013-02-12 02:11:00,33.6,33.1,29.50,NNW,338,0.0,1.3,98,0.00,,OVC,0.00,VWS V14.01,2013-02-12 07:11:00,
2013-02-12 02:16:00,33.4,32.9,29.50,NNW,338,0.0,0.0,98,0.00,,OVC,0.00,VWS V14.01,2013-02-12 07:16:00,
2013-02-12 02:21:00,33.4,32.9,29.50,NNW,338,0.0,0.0,98,0.00,,OVC,0.00,VWS V14.01,2013-02-12 07:21:00,
2013-02-12 02:26:00,33.4,32.9,29.50,NNW,338,0.0,0.0,98,0.00,,OVC,0.00,VWS V14.01,2013-02-12 07:26:00,
2013-02-12 02:30:00,33.4,32.9,29.50,NNW,338,0.0,0.0,98,0.00,,OVC,0.00,VWS V14.01,2013-02-12 07:30:00,
2013-02-12 02:31:00,33.4,32.9,29.50,NNW,338,2.2,2.2,98,0.00,,OVC,0.00,VWS V14.01,2013-02-12 07:31:00,
2013-02-12 02:36:00,33.4,32.9,29.50,NW,315,3.6,3.6,98,0.00,,OVC,0.00,VWS V14.01,2013-02-12 07:36:00,
2013-02-12 02:41:00,33.4,32.9,29.50,NNW,338,3.8,4.9,98,0.00,,OVC,0.00,VWS V14.01,2013-02-12 07:41:00,
2013-02-12 02:46:00,33.3,32.8,29.50,NNW,338,3.1,3.1,98,0.00,,OVC,0.00,VWS V14.01,2013-02-12 07:46:00,
2013-02-12 02:51:00,33.3,32.8,29.50,NNW,338,2.5,3.1,98,0.00,,OVC,0.00,VWS V14.01,2013-02-12 07:51:00,
2013-02-12 02:56:00,33.3,32.8,29.50,WNW,292,0.0,3.4,98,0.00,,OVC,0.00,VWS V14.01,2013-02-12 07:56:00,
2013-02-12 03:00:00,33.3,32.8,29.50,WNW,292,0.0,0.0,98,0.00,,OVC,0.00,VWS V14.01,2013-02-12 08:00:00,
2013-02-12 03:01:00,33.3,32.8,29.50,WNW,292,0.0,0.0,98,0.00,,OVC,0.00,VWS V14.01,2013-02-12 08:01:00,
2013-02-12 03:06:00,33.3,32.8,29.50,WNW,292,0.0,0.0,98,0.00,,OVC,0.00,VWS V14.01,2013-02-12 08:06:00,
2013-02-12 03:11:00,33.3,32.8,29.50,WNW,292,0.0,0.0,98,0.00,,OVC,0.00,VWS V14.01,2013-02-12 08:11:00,
2013-02-12 03:16:00,33.3,32.8,29.50,WNW,292,0.0,0.0,98,0.00,,OVC,0.00,VWS V14.01,2013-02-12 08:16:00,
2013-02-12 03:21:00,33.3,32.8,29.50,WNW,292,0.0,0.0,98,0.00,,OVC,0.00,VWS V14.01,2013-02-12 08:21:00,
2013-02-12 03:26:00,33.3,32.8,29.50,WNW,292,0.0,0.0,98,0.00,,OVC,0.00,VWS V14.01,2013-02-12 08:26:00,
2013-02-12 03:30:00,33.3,32.8,29.50,WNW,292,0.0,0.0,98,0.00,,OVC,0.00,VWS V14.01,2013-02-12 08:30:00,
2013-02-12 03:31:00,33.3,32.8,29.50,WNW,292,0.0,0.0,98,0.00,,OVC,0.00,VWS V14.01,2013-02-12 08:31:00,
2013-02-12 03:36:00,33.3,32.8,29.50,WNW,292,0.0,0.0,98,0.00,,OVC,0.00,VWS V14.01,2013-02-12 08:36:00,
2013-02-12 03:41:00,33.1,32.6,29.50,WNW,292,0.0,0.0,98,0.00,,OVC,0.00,VWS V14.01,2013-02-12 08:41:00,
2013-02-12 03:46:00,33.1,32.6,29.50,NNW,338,2.2,4.0,98,0.00,,OVC,0.00,VWS V14.01,2013-02-12 08:46:00,
2013-02-12 03:51:00,33.1,32.6,29.50,NW,315,4.9,4.9,98,0.00,,OVC,0.00,VWS V14.01,2013-02-12 08:51:00,
2013-02-12 03:56:00,33.1,32.6,29.50,NW,315,5.4,5.4,98,0.00,,OVC,0.00,VWS V14.01,2013-02-12 08:56:00,
2013-02-12 04:00:00,33.1,32.6,29.50,NNW,338,3.6,4.7,98,0.00,,OVC,0.00,VWS V14.01,2013-02-12 09:00:00,
2013-02-12 04:01:00,33.1,32.6,29.50,NNW,338,3.6,4.0,98,0.00,,OVC,0.00,VWS V14.01,2013-02-12 09:01:00,
2013-02-12 04:06:00,33.1,32.6,29.47,NNW,338,3.4,4.3,98,0.00,,OVC,0.00,VWS V14.01,2013-02-12 09:06:00,
2013-02-12 04:11:00,33.1,32.6,29.47,NNW,338,2.7,3.4,98,0.00,,OVC,0.00,VWS V14.01,2013-02-12 09:11:00,
2013-02-12 04:16:00,33.1,32.6,29.47,NNW,338,3.8,3.8,98,0.00,,OVC,0.00,VWS V14.01,2013-02-12 09:16:00,
2013-02-12 04:22:00,33.1,32.6,29.47,NNW,338,0.0,0.0,98,0.00,,OVC,0.00,VWS V14.01,2013-02-12 09:22:00,
2013-02-12 04:27:00,33.1,32.6,29.47,NNW,338,2.9,4.0,98,0.00,,OVC,0.00,VWS V14.01,2013-02-12 09:27:00,
2013-02-12 04:30:00,33.1,32.6,29.47,NNW,338,4.3,4.3,98,0.00,,OVC,0.00,VWS V14.01,2013-02-12 09:30:00,
2013-02-12 04:32:00,33.1,32.6,29.47,NNW,338,2.7,3.6,98,0.00,,OVC,0.00,VWS V14.01,2013-02-12 09:32:00,
2013-02-12 04:37:00,33.1,32.6,29.50,NW,315,2.0,3.1,98,0.00,,OVC,0.00,VWS V14.01,2013-02-12 09:37:00,
2013-02-12 04:42:00,33.1,32.6,29.50,NW,315,0.0,0.0,98,0.00,,OVC,0.00,VWS V14.01,2013-02-12 09:42:00,
2013-02-12 04:47:00,33.1,32.6,29.50,NW,315,0.0,0.0,98,0.00,,OVC,0.00,VWS V14.01,2013-02-12 09:47:00,
2013-02-12 04:52:00,33.1,32.6,29.50,NW,315,0.0,0.0,98,0.00,,OVC,0.00,VWS V14.01,2013-02-12 09:52:00,
2013-02-12 04:57:00,33.1,32.6,29.50,NW,315,0.0,0.0,98,0.00,,OVC,0.00,VWS V14.01,2013-02-12 09:57:00,
2013-02-12 05:00:00,33.1,32.6,29.50,NW,315,0.0,0.0,98,0.00,,OVC,0.00,VWS V14.01,2013-02-12 10:00:00,
2013-02-12 05:02:00,33.1,32.6,29.50,NNW,338,0.0,0.0,98,0.00,,OVC,0.00,VWS V14.01,2013-02-12 10:02:00,
2013-02-12 05:07:00,33.3,32.8,29.50,NNW,338,0.0,0.0,98,0.00,,OVC,0.00,VWS V14.01,2013-02-12 10:07:00,
2013-02-12 05:12:00,33.3,32.8,29.50,NNW,338,0.0,0.0,98,0.00,,OVC,0.00,VWS V14.01,2013-02-12 10:12:00,
2013-02-12 05:17:00,33.1,32.6,29.50,WNW,292,2.0,3.1,98,0.00,,OVC,0.00,VWS V14.01,2013-02-12 10:17:00,
2013-02-12 05:22:00,33.3,32.8,29.50,NNW,338,2.7,3.8,98,0.00,,OVC,0.00,VWS V14.01,2013-02-12 10:22:00,
2013-02-12 05:27:00,33.3,32.8,29.50,NNW,338,3.8,4.0,98,0.00,,OVC,0.00,VWS V14.01,2013-02-12 10:27:00,
2013-02-12 05:30:00,33.3,32.8,29.50,NNW,338,3.8,4.0,98,0.00,,OVC,0.00,VWS V14.01,2013-02-12 10:30:00,
2013-02-12 05:32:00,33.3,32.8,29.50,NNW,338,2.5,3.4,98,0.00,,OVC,0.00,VWS V14.01,2013-02-12 10:32:00,
2013-02-12 05:37:00,33.3,32.8,29.50,NNW,338,2.7,3.6,98,0.00,,OVC,0.00,VWS V14.01,2013-02-12 10:37:00,
2013-02-12 05:42:00,33.6,33.1,29.50,NNW,338,0.0,3.1,98,0.00,,OVC,0.00,VWS V14.01,2013-02-12 10:42:00,
2013-02-12 05:47:00,33.6,33.1,29.50,NNW,338,0.0,0.0,98,0.00,,OVC,0.00,VWS V14.01,2013-02-12 10:47:00,
2013-02-12 05:52:00,33.6,33.1,29.50,NNW,338,0.0,0.0,98,0.00,,OVC,0.00,VWS V14.01,2013-02-12 10:52:00,
2013-02-12 05:57:00,33.6,33.1,29.50,NNW,338,0.0,0.0,98,0.00,,OVC,0.00,VWS V14.01,2013-02-12 10:57:00,
2013-02-12 06:00:00,33.6,33.1,29.50,NNW,338,0.0,0.0,98,0.00,,OVC,0.00,VWS V14.01,2013-02-12 11:00:00,
2013-02-12 06:02:00,33.6,33.1,29.50,NNW,338,0.0,0.0,98,0.00,,OVC,0.00,VWS V14.01,2013-02-12 11:02:00,
2013-02-12 06:07:00,33.6,33.1,29.50,NNW,338,0.0,0.0,98,0.00,,OVC,0.00,VWS V14.01,2013-02-12 11:07:00,
2013-02-12 06:12:00,33.6,33.1,29.50,NNW,338,0.0,0.0,98,0.00,,OVC,0.00,VWS V14.01,2013-02-12 11:12:00,
2013-02-12 06:17:00,33.4,32.9,29.50,NNW,338,0.0,0.0,98,0.00,,OVC,0.00,VWS V14.01,2013-02-12 11:17:00,
2013-02-12 06:22:00,33.4,32.9,29.50,NW,315,0.0,0.0,98,0.00,,OVC,0.00,VWS V14.01,2013-02-12 11:22:00,
2013-02-12 06:27:00,33.4,32.9,29.50,NW,315,0.0,0.0,98,0.00,,OVC,0.00,VWS V14.01,2013-02-12 11:27:00,
2013-02-12 06:30:00,33.4,32.9,29.50,NW,315,0.0,0.0,98,0.00,,OVC,0.00,VWS V14.01,2013-02-12 11:30:00,
2013-02-12 06:32:00,33.4,32.9,29.50,NNW,338,2.5,3.4,98,0.00,,OVC,0.00,VWS V14.01,2013-02-12 11:32:00,
2013-02-12 06:37:00,33.4,32.9,29.50,NW,315,0.0,2.9,98,0.00,,OVC,0.00,VWS V14.01,2013-02-12 11:37:00,
2013-02-12 06:42:00,33.4,32.9,29.50,NNW,338,0.0,0.0,98,0.00,,OVC,0.00,VWS V14.01,2013-02-12 11:42:00,
2013-02-12 06:48:00,33.4,32.9,29.50,NNW,338,0.0,0.0,98,0.00,,OVC,0.00,VWS V14.01,2013-02-12 11:48:00,
2013-02-12 06:53:00,33.3,32.8,29.47,NW,315,2.5,2.7,98,0.00,,OVC,0.00,VWS V14.01,2013-02-12 11:53:00,
2013-02-12 06:58:00,33.3,32.8,29.47,NW,315,2.5,2.9,98,0.00,,OVC,0.00,VWS V14.01,2013-02-12 11:58:00,
2013-02-12 07:00:00,33.3,32.8,29.47,NW,315,3.6,3.6,98,0.00,,OVC,0.00,VWS V14.01,2013-02-12 12:00:00,
2013-02-12 07:03:00,33.3,32.8,29.47,NNW,338,0.0,2.7,98,0.00,,OVC,0.00,VWS V14.01,2013-02-12 12:03:00,
2013-02-12 07:08:00,33.3,32.8,29.50,NNW,338,2.2,2.5,98,0.00,,OVC,0.00,VWS V14.01,2013-02-12 12:08:00,
2013-02-12 07:13:00,33.3,32.8,29.50,NNW,338,0.0,2.2,98,0.00,,OVC,0.00,VWS V14.01,2013-02-12 12:13:00,
2013-02-12 07:18:00,33.3,32.8,29.50,NNW,338,0.0,0.0,98,0.00,,OVC,0.00,VWS V14.01,2013-02-12 12:18:00,
2013-02-12 07:23:00,33.3,32.8,29.50,NNW,338,0.0,0.0,98,0.00,,OVC,0.00,VWS V14.01,2013-02-12 12:23:00,
2013-02-12 07:28:00,33.3,32.8,29.50,NNW,338,0.0,0.0,98,0.00,,OVC,0.00,VWS V14.01,2013-02-12 12:28:00,
2013-02-12 07:30:00,33.3,32.8,29.50,NNW,338,0.0,0.0,98,0.00,,OVC,0.00,VWS V14.01,2013-02-12 12:30:00,
2013-02-12 07:33:00,33.3,32.8,29.50,NNW,338,0.0,0.0,98,0.00,,OVC,0.00,VWS V14.01,2013-02-12 12:33:00,
2013-02-12 07:38:00,33.3,32.8,29.47,NNW,338,2.5,2.5,98,0.00,,OVC,0.00,VWS V14.01,2013-02-12 12:38:00,
2013-02-12 07:43:00,33.4,32.9,29.47,NNW,338,0.9,3.8,98,0.00,,OVC,0.00,VWS V14.01,2013-02-12 12:43:00,
2013-02-12 07:48:00,33.4,32.9,29.47,NNW,338,2.5,2.5,98,0.00,,OVC,0.00,VWS V14.01,2013-02-12 12:48:00,
2013-02-12 07:53:00,33.4,32.9,29.50,NNW,338,3.1,3.1,98,0.00,,OVC,0.00,VWS V14.01,2013-02-12 12:53:00,
2013-02-12 07:58:00,33.4,32.9,29.50,NNW,338,3.8,3.8,98,0.00,,OVC,0.00,VWS V14.01,2013-02-12 12:58:00,
2013-02-12 08:00:00,33.4,32.9,29.50,NNW,338,3.8,3.8,98,0.00,,OVC,0.00,VWS V14.01,2013-02-12 13:00:00,
2013-02-12 08:03:00,33.4,32.9,29.50,NW,315,3.1,3.4,98,0.00,,OVC,0.00,VWS V14.01,2013-02-12 13:03:00,
2013-02-12 08:08:00,33.3,32.8,29.50,NW,315,0.0,1.1,98,0.00,,OVC,0.00,VWS V14.01,2013-02-12 13:08:00,
2013-02-12 08:13:00,34.0,33.5,29.50,NW,315,1.1,3.8,98,0.00,,OVC,0.00,VWS V14.01,2013-02-12 13:13:00,
2013-02-12 08:18:00,34.2,33.7,29.50,NNW,338,2.0,3.1,98,0.00,,OVC,0.00,VWS V14.01,2013-02-12 13:18:00,
2013-02-12 08:23:00,34.5,34.0,29.50,NW,315,2.7,3.6,98,0.00,,OVC,0.00,VWS V14.01,2013-02-12 13:23:00,
2013-02-12 08:28:00,34.9,34.4,29.50,NNW,338,3.4,3.4,98,0.00,,OVC,0.00,VWS V14.01,2013-02-12 13:28:00,
2013-02-12 08:30:00,34.9,34.4,29.50,NNW,338,3.4,3.4,98,0.00,,OVC,0.00,VWS V14.01,2013-02-12 13:30:00,
2013-02-12 08:33:00,35.6,35.1,29.50,NNW,338,2.0,3.4,98,0.00,,OVC,0.00,VWS V14.01,2013-02-12 13:33:00,
2013-02-12 08:38:00,35.6,35.1,29.50,NNW,338,3.1,3.1,98,0.00,,OVC,0.00,VWS V14.01,2013-02-12 13:38:00,
2013-02-12 08:43:00,35.6,35.1,29.50,NW,315,4.3,4.3,98,0.00,,OVC,0.00,VWS V14.01,2013-02-12 13:43:00,
2013-02-12 08:48:00,35.6,35.1,29.50,NW,315,2.5,2.5,98,0.00,,OVC,0.00,VWS V14.01,2013-02-12 13:48:00,
2013-02-12 08:53:00,35.6,35.1,29.53,NNW,338,2.5,2.5,98,0.00,,OVC,0.00,VWS V14.01,2013-02-12 13:53:00,
2013-02-12 08:58:00,35.6,35.1,29.53,WNW,292,5.4,5.8,98,0.00,,OVC,0.00,VWS V14.01,2013-02-12 13:58:00,
2013-02-12 09:00:00,35.6,35.1,29.53,WNW,292,5.4,5.8,98,0.00,,OVC,0.00,VWS V14.01,2013-02-12 14:00:00,
2013-02-12 09:03:00,35.6,35.1,29.53,WNW,292,2.5,2.5,98,0.00,,OVC,0.00,VWS V14.01,2013-02-12 14:03:00,
2013-02-12 09:08:00,35.6,33.5,29.53,NW,315,1.6,2.5,92,0.00,,OVC,0.00,VWS V14.01,2013-02-12 14:08:00,
2013-02-12 09:13:00,35.6,33.5,29.53,NW,315,1.6,2.9,92,0.00,,OVC,0.00,VWS V14.01,2013-02-12 14:13:00,
2013-02-12 09:18:00,35.8,32.9,29.53,NW,315,1.6,1.6,89,0.00,,OVC,0.00,VWS V14.01,2013-02-12 14:18:00,
2013-02-12 09:23:00,36.0,33.0,29.53,WNW,292,2.7,2.7,89,0.00,,OVC,0.00,VWS V14.01,2013-02-12 14:23:00,
2013-02-12 09:28:00,36.0,33.0,29.53,NNW,338,2.9,2.9,89,0.00,,OVC,0.00,VWS V14.01,2013-02-12 14:28:00,
2013-02-12 09:30:00,36.0,33.0,29.53,NNW,338,2.9,2.9,89,0.00,,OVC,0.00,VWS V14.01,2013-02-12 14:30:00,
2013-02-12 09:33:00,37.4,33.6,29.53,NW,315,2.7,2.7,86,0.00,,OVC,0.00,VWS V14.01,2013-02-12 14:33:00,
2013-02-12 09:38:00,37.8,32.5,29.53,NW,315,3.6,4.0,81,0.00,,OVC,0.00,VWS V14.01,2013-02-12 14:38:00,
2013-02-12 09:43:00,38.3,32.7,29.53,NNW,338,1.3,2.5,80,0.00,,OVC,0.00,VWS V14.01,2013-02-12 14:43:00,
2013-02-12 09:48:00,38.7,33.0,29.53,NNW,338,1.3,2.7,80,0.00,,OVC,0.00,VWS V14.01,2013-02-12 14:48:00,
2013-02-12 09:53:00,39.0,33.4,29.53,NNW,338,2.9,2.9,80,0.00,,OVC,0.00,VWS V14.01,2013-02-12 14:53:00,
2013-02-12 09:59:00,39.7,33.8,29.53,NNW,338,1.6,1.6,79,0.00,,OVC,0.00,VWS V14.01,2013-02-12 14:59:00,
2013-02-12 10:00:00,39.7,33.8,29.53,NNW,338,1.6,1.6,79,0.00,,OVC,0.00,VWS V14.01,2013-02-12 15:00:00,
2013-02-12 10:04:00,40.1,32.5,29.53,NNW,338,1.6,1.6,74,0.00,,OVC,0.00,VWS V14.01,2013-02-12 15:04:00,
2013-02-12 10:09:00,40.3,30.9,29.53,WNW,292,4.0,4.0,69,0.00,,OVC,0.00,VWS V14.01,2013-02-12 15:09:00,
2013-02-12 10:14:00,39.7,29.0,29.53,WNW,292,4.9,4.9,65,0.00,,OVC,0.00,VWS V14.01,2013-02-12 15:14:00,
2013-02-12 10:19:00,39.9,29.5,29.53,NNW,338,3.4,3.4,66,0.00,,OVC,0.00,VWS V14.01,2013-02-12 15:19:00,
2013-02-12 10:24:00,40.5,30.0,29.53,NNW,338,3.4,3.4,66,0.00,,OVC,0.00,VWS V14.01,2013-02-12 15:24:00,
2013-02-12 10:29:00,41.2,30.3,29.53,NNW,338,3.4,3.4,65,0.00,,OVC,0.00,VWS V14.01,2013-02-12 15:29:00,
2013-02-12 10:30:00,41.2,30.3,29.53,NNW,338,3.4,3.4,65,0.00,,OVC,0.00,VWS V14.01,2013-02-12 15:30:00,
2013-02-12 10:34:00,41.7,29.7,29.53,NNW,338,3.4,3.4,62,0.00,,OVC,0.00,VWS V14.01,2013-02-12 15:34:00,
2013-02-12 10:39:00,40.6,27.0,29.53,NNW,338,4.3,4.3,58,0.00,,OVC,0.00,VWS V14.01,2013-02-12 15:39:00,
2013-02-12 10:44:00,40.5,26.9,29.53,NW,315,4.9,4.9,58,0.00,,OVC,0.00,VWS V14.01,2013-02-12 15:44:00,
2013-02-12 10:49:00,40.1,26.1,29.53,NNW,338,4.7,5.8,57,0.00,,OVC,0.00,VWS V14.01,2013-02-12 15:49:00,
2013-02-12 10:54:00,40.6,27.5,29.53,NNW,338,4.9,4.9,59,0.00,,OVC,0.00,VWS V14.01,2013-02-12 15:54:00,
2013-02-12 10:59:00,40.6,26.6,29.53,WNW,292,6.0,6.0,57,0.00,,OVC,0.00,VWS V14.01,2013-02-12 15:59:00,
2013-02-12 11:00:00,40.8,27.2,29.53,NNW,338,3.6,3.6,58,0.00,,OVC,0.00,VWS V14.01,2013-02-12 16:00:00,
2013-02-12 11:04:00,40.8,27.6,29.53,West,270,2.7,2.7,59,0.00,,OVC,0.00,VWS V14.01,2013-02-12 16:04:00,
2013-02-12 11:09:00,40.8,27.6,29.53,NW,315,2.9,3.8,59,0.00,,OVC,0.00,VWS V14.01,2013-02-12 16:09:00,
2013-02-12 11:14:00,41.2,27.1,29.53,WNW,292,3.4,5.4,57,0.00,,OVC,0.00,VWS V14.01,2013-02-12 16:14:00,
2013-02-12 11:19:00,41.4,26.9,29.53,NW,315,6.5,6.5,56,0.00,,OVC,0.00,VWS V14.01,2013-02-12 16:19:00,
2013-02-12 11:24:00,41.5,27.0,29.53,NNW,338,2.0,3.1,56,0.00,,OVC,0.00,VWS V14.01,2013-02-12 16:24:00,
2013-02-12 11:29:00,42.4,27.4,29.53,NNW,338,5.8,5.8,55,0.00,,OVC,0.00,VWS V14.01,2013-02-12 16:29:00,
2013-02-12 11:30:00,42.4,27.4,29.53,WNW,292,1.1,4.0,55,0.00,,OVC,0.00,VWS V14.01,2013-02-12 16:30:00,
2013-02-12 11:34:00,41.5,25.7,29.53,NNW,338,4.9,6.5,53,0.00,,OVC,0.00,VWS V14.01,2013-02-12 16:34:00,
2013-02-12 11:39:00,41.5,25.7,29.53,WNW,292,4.3,5.4,53,0.00,,OVC,0.00,VWS V14.01,2013-02-12 16:39:00,
2013-02-12 11:44:00,41.9,25.6,29.53,WNW,292,6.5,6.5,52,0.00,,OVC,0.00,VWS V14.01,2013-02-12 16:44:00,
2013-02-12 11:49:00,41.7,25.4,29.53,WNW,292,8.5,8.5,52,0.00,,OVC,0.00,VWS V14.01,2013-02-12 16:49:00,
2013-02-12 11:54:00,41.5,25.2,29.53,West,270,3.1,6.9,52,0.00,,OVC,0.00,VWS V14.01,2013-02-12 16:54:00,
2013-02-12 11:59:00,41.4,25.5,29.53,NNW,338,2.5,6.5,53,0.00,,OVC,0.00,VWS V14.01,2013-02-12 16:59:00,
2013-02-12 12:00:00,41.4,25.5,29.53,NW,315,4.0,6.0,53,0.00,,OVC,0.00,VWS V14.01,2013-02-12 17:00:00,
2013-02-12 12:04:00,41.2,25.4,29.53,WNW,292,3.1,4.0,53,0.00,,OVC,0.00,VWS V14.01,2013-02-12 17:04:00,
2013-02-12 12:09:00,41.2,25.4,29.53,NNW,338,4.0,7.2,53,0.00,,OVC,0.00,VWS V14.01,2013-02-12 17:09:00,
2013-02-12 12:14:00,41.2,25.8,29.53,NW,315,4.9,4.9,54,0.00,,OVC,0.00,VWS V14.01,2013-02-12 17:14:00,
2013-02-12 12:19:00,41.2,25.8,29.53,North,0,5.6,5.8,54,0.00,,OVC,0.00,VWS V14.01,2013-02-12 17:19:00,
2013-02-12 12:24:00,42.3,25.4,29.53,WNW,292,2.2,4.9,51,0.00,,OVC,0.00,VWS V14.01,2013-02-12 17:24:00,
2013-02-12 12:29:00,42.6,25.3,29.53,NW,315,10.3,10.3,50,0.00,,OVC,0.00,VWS V14.01,2013-02-12 17:29:00,
2013-02-12 12:30:00,42.4,25.1,29.53,NW,315,4.0,7.4,50,0.00,,OVC,0.00,VWS V14.01,2013-02-12 17:30:00,
2013-02-12 12:34:00,42.1,24.8,29.53,NNW,338,7.6,7.6,50,0.00,,OVC,0.00,VWS V14.01,2013-02-12 17:34:00,
2013-02-12 12:40:00,42.1,24.3,29.53,NW,315,4.0,6.5,49,0.00,,OVC,0.00,VWS V14.01,2013-02-12 17:40:00,
2013-02-12 12:45:00,42.3,24.5,29.53,WNW,292,4.0,6.0,49,0.00,,OVC,0.00,VWS V14.01,2013-02-12 17:45:00,
2013-02-12 12:50:00,42.3,24.5,29.53,NNW,338,3.1,4.7,49,0.00,,OVC,0.00,VWS V14.01,2013-02-12 17:50:00,
2013-02-12 12:55:00,42.1,24.3,29.53,NNW,338,5.4,5.4,49,0.00,,OVC,0.00,VWS V14.01,2013-02-12 17:55:00,
2013-02-12 13:00:00,42.4,25.1,29.53,NNW,338,5.6,5.6,50,0.00,,OVC,0.00,VWS V14.01,2013-02-12 18:00:00,
2013-02-12 13:05:00,42.8,24.5,29.53,NNW,338,8.7,8.7,48,0.00,,OVC,0.00,VWS V14.01,2013-02-12 18:05:00,
2013-02-12 13:10:00,43.0,24.6,29.53,NW,315,2.7,6.0,48,0.00,,OVC,0.00,VWS V14.01,2013-02-12 18:10:00,
2013-02-12 13:15:00,42.8,24.0,29.53,NNW,338,9.4,10.1,47,0.00,,OVC,0.00,VWS V14.01,2013-02-12 18:15:00,
2013-02-12 13:20:00,44.1,25.1,29.53,WNW,292,4.0,5.8,47,0.00,,OVC,0.00,VWS V14.01,2013-02-12 18:20:00,
2013-02-12 13:25:00,44.1,25.1,29.53,NNW,338,3.4,3.8,47,0.00,,OVC,0.00,VWS V14.01,2013-02-12 18:25:00,
2013-02-12 13:30:00,45.9,25.2,29.53,WNW,292,5.8,5.8,44,0.00,,OVC,0.00,VWS V14.01,2013-02-12 18:30:00,
2013-02-12 13:35:00,44.8,23.1,29.53,North,0,5.8,5.8,42,0.00,,OVC,0.00,VWS V14.01,2013-02-12 18:35:00,
2013-02-12 13:40:00,45.3,24.2,29.53,NW,315,4.7,4.9,43,0.00,,OVC,0.00,VWS V14.01,2013-02-12 18:40:00,
2013-02-12 13:45:00,45.1,24.0,29.53,WNW,292,6.3,6.3,43,0.00,,OVC,0.00,VWS V14.01,2013-02-12 18:45:00,
2013-02-12 13:50:00,45.3,23.6,29.53,WNW,292,8.7,8.7,42,0.00,,OVC,0.00,VWS V14.01,2013-02-12 18:50:00,
2013-02-12 13:55:00,44.1,23.0,29.53,NW,315,8.1,8.1,43,0.00,,OVC,0.00,VWS V14.01,2013-02-12 18:55:00,
2013-02-12 14:00:00,43.9,22.9,29.53,NNW,338,4.9,8.5,43,0.00,,OVC,0.00,VWS V14.01,2013-02-12 19:00:00,
2013-02-12 14:05:00,44.1,23.0,29.53,WNW,292,4.9,5.4,43,0.00,,OVC,0.00,VWS V14.01,2013-02-12 19:05:00,
2013-02-12 14:10:00,43.2,22.7,29.53,WNW,292,13.9,13.9,44,0.00,,OVC,0.00,VWS V14.01,2013-02-12 19:10:00,
2013-02-12 14:15:00,42.3,23.0,29.53,WNW,292,11.9,11.9,46,0.00,,OVC,0.00,VWS V14.01,2013-02-12 19:15:00,
2013-02-12 14:20:00,41.9,23.2,29.53,NNW,338,6.3,6.5,47,0.00,,OVC,0.00,VWS V14.01,2013-02-12 19:20:00,
2013-02-12 14:25:00,41.7,23.5,29.53,NW,315,7.2,8.7,48,0.00,,OVC,0.00,VWS V14.01,2013-02-12 19:25:00,
2013-02-12 14:30:00,42.1,23.3,29.53,WNW,292,11.0,12.1,47,0.00,,OVC,0.00,VWS V14.01,2013-02-12 19:30:00,
2013-02-12 14:35:00,41.9,23.2,29.53,NNW,338,7.6,11.9,47,0.00,,OVC,0.00,VWS V14.01,2013-02-12 19:35:00,
2013-02-12 14:40:00,41.9,23.7,29.53,WNW,292,8.5,8.7,48,0.00,,OVC,0.00,VWS V14.01,2013-02-12 19:40:00,
2013-02-12 14:45:00,42.1,23.8,29.53,NW,315,6.0,10.5,48,0.00,,OVC,0.00,VWS V14.01,2013-02-12 19:45:00,
2013-02-12 14:50:00,42.1,23.8,29.53,WNW,292,5.6,10.1,48,0.00,,OVC,0.00,VWS V14.01,2013-02-12 19:50:00,
2013-02-12 14:55:00,42.1,23.8,29.53,NW,315,7.2,8.7,48,0.00,,OVC,0.00,VWS V14.01,2013-02-12 19:55:00,
2013-02-12 15:00:00,42.1,24.3,29.53,NNW,338,7.8,7.8,49,0.00,,OVC,0.00,VWS V14.01,2013-02-12 20:00:00,
2013-02-12 15:05:00,42.1,24.3,29.53,NNW,338,3.4,7.2,49,0.00,,OVC,0.00,VWS V14.01,2013-02-12 20:05:00,
2013-02-12 15:10:00,42.3,24.5,29.53,WNW,292,8.1,8.1,49,0.00,,OVC,0.00,VWS V14.01,2013-02-12 20:10:00,
2013-02-12 15:15:00,42.3,24.5,29.53,NNW,338,5.8,8.1,49,0.00,,OVC,0.00,VWS V14.01,2013-02-12 20:15:00,
2013-02-12 15:20:00,42.1,24.3,29.53,NNW,338,4.0,5.6,49,0.00,,OVC,0.00,VWS V14.01,2013-02-12 20:20:00,
2013-02-12 15:25:00,42.1,24.3,29.53,NW,315,7.4,9.4,49,0.00,,OVC,0.00,VWS V14.01,2013-02-12 20:25:00,
2013-02-12 15:30:00,41.9,24.1,29.53,NW,315,8.5,8.5,49,0.00,,OVC,0.00,VWS V14.01,2013-02-12 20:30:00,
2013-02-12 15:35:00,41.5,23.8,29.53,NW,315,8.5,8.5,49,0.00,,OVC,0.00,VWS V14.01,2013-02-12 20:35:00,
2013-02-12 15:40:00,41.4,23.6,29.53,NW,315,8.5,9.8,49,0.00,,OVC,0.00,VWS V14.01,2013-02-12 20:40:00,
2013-02-12 15:45:00,41.2,23.5,29.53,WNW,292,4.7,5.8,49,0.00,,OVC,0.00,VWS V14.01,2013-02-12 20:45:00,
2013-02-12 15:51:00,41.0,23.8,29.56,NNW,338,3.8,7.4,50,0.00,,OVC,0.00,VWS V14.01,2013-02-12 20:51:00,
2013-02-12 15:56:00,40.8,23.6,29.56,WNW,292,5.6,6.0,50,0.00,,OVC,0.00,VWS V14.01,2013-02-12 20:56:00,
2013-02-12 16:00:00,40.8,23.6,29.56,NW,315,4.0,7.4,50,0.00,,OVC,0.00,VWS V14.01,2013-02-12 21:00:00,
2013-02-12 16:01:00,40.6,23.5,29.56,WNW,292,7.6,7.8,50,0.00,,OVC,0.00,VWS V14.01,2013-02-12 21:01:00,
2013-02-12 16:06:00,40.5,23.3,29.56,West,270,6.3,8.7,50,0.00,,OVC,0.00,VWS V14.01,2013-02-12 21:06:00,
2013-02-12 16:11:00,40.3,23.6,29.56,NNW,338,5.6,8.5,51,0.00,,OVC,0.00,VWS V14.01,2013-02-12 21:11:00,
2013-02-12 16:16:00,40.3,23.6,29.56,WNW,292,6.7,6.7,51,0.00,,OVC,0.00,VWS V14.01,2013-02-12 21:16:00,
2013-02-12 16:21:00,39.9,23.3,29.56,NNW,338,5.4,7.6,51,0.00,,OVC,0.00,VWS V14.01,2013-02-12 21:21:00,
2013-02-12 16:26:00,39.9,23.3,29.56,NNW,338,5.6,10.5,51,0.00,,OVC,0.00,VWS V14.01,2013-02-12 21:26:00,
2013-02-12 16:30:00,39.7,23.6,29.56,NW,315,6.3,7.8,52,0.00,,OVC,0.00,VWS V14.01,2013-02-12 21:30:00,
2013-02-12 16:31:00,39.6,23.4,29.56,NW,315,6.5,6.5,52,0.00,,OVC,0.00,VWS V14.01,2013-02-12 21:31:00,
2013-02-12 16:36:00,39.4,23.2,29.56,WNW,292,2.9,7.4,52,0.00,,OVC,0.00,VWS V14.01,2013-02-12 21:36:00,
2013-02-12 16:41:00,39.2,23.1,29.56,NNW,338,4.3,4.3,52,0.00,,OVC,0.00,VWS V14.01,2013-02-12 21:41:00,
2013-02-12 16:46:00,39.2,23.5,29.56,NW,315,3.8,3.8,53,0.00,,OVC,0.00,VWS V14.01,2013-02-12 21:46:00,
2013-02-12 16:51:00,39.2,23.5,29.56,NW,315,7.8,7.8,53,0.00,,OVC,0.00,VWS V14.01,2013-02-12 21:51:00,
2013-02-12 16:56:00,39.2,23.1,29.56,NW,315,3.8,3.8,52,0.00,,OVC,0.00,VWS V14.01,2013-02-12 21:56:00,
2013-02-12 17:00:00,39.0,23.4,29.56,WNW,292,5.4,5.4,53,0.00,,OVC,0.00,VWS V14.01,2013-02-12 22:00:00,
2013-02-12 17:01:00,38.8,23.2,29.56,NNW,338,7.2,7.2,53,0.00,,OVC,0.00,VWS V14.01,2013-02-12 22:01:00,
2013-02-12 17:06:00,38.8,23.2,29.56,NNW,338,4.9,6.0,53,0.00,,OVC,0.00,VWS V14.01,2013-02-12 22:06:00,
2013-02-12 17:11:00,38.8,23.2,29.56,NW,315,4.9,8.5,53,0.00,,OVC,0.00,VWS V14.01,2013-02-12 22:11:00,
2013-02-12 17:16:00,38.7,23.5,29.56,NNW,338,6.0,7.8,54,0.00,,OVC,0.00,VWS V14.01,2013-02-12 22:16:00,
2013-02-12 17:21:00,38.7,23.5,29.56,NNW,338,7.8,7.8,54,0.00,,OVC,0.00,VWS V14.01,2013-02-12 22:21:00,
2013-02-12 17:26:00,38.5,23.3,29.56,WNW,292,4.3,7.2,54,0.00,,OVC,0.00,VWS V14.01,2013-02-12 22:26:00,
2013-02-12 17:30:00,38.5,23.7,29.56,NW,315,4.3,6.3,55,0.00,,OVC,0.00,VWS V14.01,2013-02-12 22:30:00,
2013-02-12 17:31:00,38.5,23.3,29.56,NNW,338,6.5,6.5,54,0.00,,OVC,0.00,VWS V14.01,2013-02-12 22:31:00,
2013-02-12 17:36:00,38.3,22.7,29.56,NW,315,3.8,5.8,53,0.00,,OVC,0.00,VWS V14.01,2013-02-12 22:36:00,
2013-02-12 17:41:00,38.3,22.7,29.56,NNW,338,5.8,7.2,53,0.00,,OVC,0.00,VWS V14.01,2013-02-12 22:41:00,
2013-02-12 17:46:00,38.1,22.5,29.56,WNW,292,6.3,7.8,53,0.00,,OVC,0.00,VWS V14.01,2013-02-12 22:46:00,
2013-02-12 17:51:00,38.1,22.5,29.56,WNW,292,3.8,6.3,53,0.00,,OVC,0.00,VWS V14.01,2013-02-12 22:51:00,
2013-02-12 17:56:00,38.1,22.1,29.56,NW,315,8.1,8.1,52,0.00,,OVC,0.00,VWS V14.01,2013-02-12 22:56:00,
2013-02-12 18:00:00,38.3,22.2,29.56,NNW,338,5.4,7.8,52,0.00,,OVC,0.00,VWS V14.01,2013-02-12 23:00:00,
2013-02-12 18:01:00,38.3,21.8,29.56,NNW,338,6.0,8.7,51,0.00,,OVC,0.00,VWS V14.01,2013-02-12 23:01:00,
2013-02-12 18:06:00,38.5,21.9,29.56,NNW,338,6.0,8.7,51,0.00,,OVC,0.00,VWS V14.01,2013-02-12 23:06:00,
2013-02-12 18:11:00,38.5,21.9,29.56,NNW,338,4.9,8.7,51,0.00,,OVC,0.00,VWS V14.01,2013-02-12 23:11:00,
2013-02-12 18:16:00,38.7,21.6,29.56,NNW,338,7.8,8.7,50,0.00,,OVC,0.00,VWS V14.01,2013-02-12 23:16:00,
2013-02-12 18:21:00,38.7,21.6,29.59,NW,315,6.7,9.6,50,0.00,,OVC,0.00,VWS V14.01,2013-02-12 23:21:00,
2013-02-12 18:26:00,38.7,21.6,29.59,NW,315,6.3,6.3,50,0.00,,OVC,0.00,VWS V14.01,2013-02-12 23:26:00,
2013-02-12 18:30:00,38.7,21.6,29.59,NW,315,6.3,7.2,50,0.00,,OVC,0.00,VWS V14.01,2013-02-12 23:30:00,
2013-02-12 18:31:00,38.7,22.1,29.59,NNW,338,6.3,6.3,51,0.00,,OVC,0.00,VWS V14.01,2013-02-12 23:31:00,
2013-02-12 18:36:00,38.7,21.6,29.59,NNW,338,7.4,10.1,50,0.00,,OVC,0.00,VWS V14.01,2013-02-12 23:36:00,
2013-02-12 18:41:00,38.7,22.1,29.59,NNW,338,9.2,14.5,51,0.00,,OVC,0.00,VWS V14.01,2013-02-12 23:41:00,
2013-02-12 18:46:00,38.8,21.8,29.59,NW,315,8.1,11.0,50,0.00,,OVC,0.00,VWS V14.01,2013-02-12 23:46:00,
2013-02-12 18:51:00,38.7,21.6,29.62,NW,315,7.6,8.7,50,0.00,,OVC,0.00,VWS V14.01,2013-02-12 23:51:00,
2013-02-12 18:56:00,38.7,21.6,29.62,NW,315,7.8,13.4,50,0.00,,OVC,0.00,VWS V14.01,2013-02-12 23:56:00,
2013-02-12 19:00:00,38.7,21.6,29.62,NW,315,5.8,8.7,50,0.00,,OVC,0.00,VWS V14.01,2013-02-13 00:00:00,
2013-02-12 19:01:00,38.7,21.6,29.62,NNW,338,8.5,15.2,50,0.00,,OVC,0.00,VWS V14.01,2013-02-13 00:01:00,
2013-02-12 19:06:00,38.5,21.9,29.62,NW,315,6.3,8.5,51,0.00,,OVC,0.00,VWS V14.01,2013-02-13 00:06:00,
2013-02-12 19:11:00,38.5,21.5,29.62,NNW,338,7.4,11.0,50,0.00,,OVC,0.00,VWS V14.01,2013-02-13 00:11:00,
2013-02-12 19:17:00,38.5,21.9,29.62,NW,315,8.1,15.2,51,0.00,,OVC,0.00,VWS V14.01,2013-02-13 00:17:00,
2013-02-12 19:22:00,38.3,21.8,29.62,NW,315,8.1,9.8,51,0.00,,OVC,0.00,VWS V14.01,2013-02-13 00:22:00,
2013-02-12 19:27:00,38.3,21.8,29.62,NW,315,9.8,11.4,51,0.00,,OVC,0.00,VWS V14.01,2013-02-13 00:27:00,
2013-02-12 19:30:00,38.1,22.1,29.62,NNW,338,7.8,9.8,52,0.00,,OVC,0.00,VWS V14.01,2013-02-13 00:30:00,
2013-02-12 19:32:00,38.1,22.1,29.62,NW,315,9.4,10.5,52,0.00,,OVC,0.00,VWS V14.01,2013-02-13 00:32:00,
2013-02-12 19:37:00,38.1,21.6,29.62,WNW,292,8.1,12.8,51,0.00,,OVC,0.00,VWS V14.01,2013-02-13 00:37:00,
2013-02-12 19:42:00,38.1,22.1,29.62,NNW,338,6.0,10.5,52,0.00,,OVC,0.00,VWS V14.01,2013-02-13 00:42:00,
2013-02-12 19:47:00,37.9,22.4,29.62,NW,315,6.3,7.2,53,0.00,,OVC,0.00,VWS V14.01,2013-02-13 00:47:00,
2013-02-12 19:52:00,37.9,21.9,29.62,NNW,338,5.6,5.6,52,0.00,,OVC,0.00,VWS V14.01,2013-02-13 00:52:00,
2013-02-12 19:57:00,37.9,21.9,29.62,WNW,292,6.3,6.3,52,0.00,,OVC,0.00,VWS V14.01,2013-02-13 00:57:00,
2013-02-12 20:00:00,37.9,21.9,29.62,NNW,338,8.1,9.6,52,0.00,,OVC,0.00,VWS V14.01,2013-02-13 01:00:00,
2013-02-12 20:02:00,37.9,21.9,29.62,NNW,338,6.5,6.5,52,0.00,,OVC,0.00,VWS V14.01,2013-02-13 01:02:00,
2013-02-12 20:07:00,37.9,21.9,29.65,NW,315,7.6,9.8,52,0.00,,OVC,0.00,VWS V14.01,2013-02-13 01:07:00,
2013-02-12 20:12:00,37.8,22.2,29.65,NNW,338,10.1,10.3,53,0.00,,OVC,0.00,VWS V14.01,2013-02-13 01:12:00,
2013-02-12 20:17:00,37.6,22.0,29.65,NW,315,6.5,6.5,53,0.00,,OVC,0.00,VWS V14.01,2013-02-13 01:17:00,
2013-02-12 20:22:00,37.6,22.0,29.65,NW,315,5.8,8.1,53,0.00,,OVC,0.00,VWS V14.01,2013-02-13 01:22:00,
2013-02-12 20:27:00,37.4,21.9,29.65,North,0,8.1,8.1,53,0.00,,OVC,0.00,VWS V14.01,2013-02-13 01:27:00,
2013-02-12 20:30:00,37.4,21.9,29.65,North,0,8.1,8.1,53,0.00,,OVC,0.00,VWS V14.01,2013-02-13 01:30:00,
2013-02-12 20:32:00,37.4,22.3,29.65,North,0,8.1,8.1,54,0.00,,OVC,0.00,VWS V14.01,2013-02-13 01:32:00,
2013-02-12 20:37:00,37.4,21.9,29.65,North,0,8.1,8.1,53,0.00,,OVC,0.00,VWS V14.01,2013-02-13 01:37:00,
2013-02-12 20:42:00,37.4,21.9,29.65,WNW,292,7.4,7.4,53,0.00,,OVC,0.00,VWS V14.01,2013-02-13 01:42:00,
2013-02-12 20:47:00,37.4,21.9,29.65,NW,315,5.4,5.4,53,0.00,,OVC,0.00,VWS V14.01,2013-02-13 01:47:00,
2013-02-12 20:52:00,37.4,21.9,29.65,NW,315,5.4,5.4,53,0.00,,OVC,0.00,VWS V14.01,2013-02-13 01:52:00,
2013-02-12 20:57:00,37.4,21.4,29.65,WNW,292,11.0,11.0,52,0.00,,OVC,0.00,VWS V14.01,2013-02-13 01:57:00,
2013-02-12 21:00:00,37.4,21.4,29.65,WNW,292,11.0,11.0,52,0.00,,OVC,0.00,VWS V14.01,2013-02-13 02:00:00,
2013-02-12 21:02:00,37.4,21.9,29.65,WNW,292,11.0,11.0,53,0.00,,OVC,0.00,VWS V14.01,2013-02-13 02:02:00,
2013-02-12 21:07:00,37.4,21.4,29.68,WNW,292,7.8,7.8,52,0.00,,OVC,0.00,VWS V14.01,2013-02-13 02:07:00,
2013-02-12 21:12:00,37.4,21.9,29.68,NNW,338,8.5,8.5,53,0.00,,OVC,0.00,VWS V14.01,2013-02-13 02:12:00,
2013-02-12 21:17:00,37.2,22.1,29.68,NW,315,6.3,8.1,54,0.00,,OVC,0.00,VWS V14.01,2013-02-13 02:17:00,
2013-02-12 21:22:00,37.0,22.0,29.68,NW,315,6.0,8.1,54,0.00,,OVC,0.00,VWS V14.01,2013-02-13 02:22:00,
2013-02-12 21:27:00,37.0,22.0,29.68,NNW,338,8.1,8.1,54,0.00,,OVC,0.00,VWS V14.01,2013-02-13 02:27:00,
2013-02-12 21:30:00,37.2,21.7,29.68,WNW,292,10.1,10.1,53,0.00,,OVC,0.00,VWS V14.01,2013-02-13 02:30:00,
2013-02-12 21:32:00,37.0,21.5,29.68,WNW,292,7.6,7.6,53,0.00,,OVC,0.00,VWS V14.01,2013-02-13 02:32:00,
2013-02-12 21:37:00,36.9,21.8,29.68,NW,315,7.4,7.4,54,0.00,,OVC,0.00,VWS V14.01,2013-02-13 02:37:00,
2013-02-12 21:42:00,36.9,21.8,29.68,NW,315,7.4,7.4,54,0.00,,OVC,0.00,VWS V14.01,2013-02-13 02:42:00,
2013-02-12 21:47:00,36.9,21.3,29.68,NW,315,8.1,8.1,53,0.00,,OVC,0.00,VWS V14.01,2013-02-13 02:47:00,
2013-02-12 21:52:00,36.9,21.8,29.68,NNW,338,6.5,7.2,54,0.00,,OVC,0.00,VWS V14.01,2013-02-13 02:52:00,
2013-02-12 21:57:00,36.9,21.8,29.68,WNW,292,7.4,7.4,54,0.00,,OVC,0.00,VWS V14.01,2013-02-13 02:57:00,
2013-02-12 22:00:00,36.9,21.8,29.68,WNW,292,7.4,7.4,54,0.00,,OVC,0.00,VWS V14.01,2013-02-13 03:00:00,
2013-02-12 22:02:00,36.9,21.8,29.68,NW,315,5.4,5.4,54,0.00,,OVC,0.00,VWS V14.01,2013-02-13 03:02:00,
2013-02-12 22:07:00,36.9,21.8,29.68,NW,315,6.0,6.0,54,0.00,,OVC,0.00,VWS V14.01,2013-02-13 03:07:00,
2013-02-12 22:12:00,36.9,21.3,29.68,WNW,292,7.2,7.2,53,0.00,,OVC,0.00,VWS V14.01,2013-02-13 03:12:00,
2013-02-12 22:17:00,36.9,21.3,29.68,NNW,338,5.8,5.8,53,0.00,,OVC,0.00,VWS V14.01,2013-02-13 03:17:00,
2013-02-12 22:22:00,36.9,21.3,29.68,NW,315,7.8,7.8,53,0.00,,OVC,0.00,VWS V14.01,2013-02-13 03:22:00,
2013-02-12 22:27:00,36.9,21.3,29.68,WNW,292,3.6,3.8,53,0.00,,OVC,0.00,VWS V14.01,2013-02-13 03:27:00,
2013-02-12 22:30:00,36.9,21.3,29.68,WNW,292,3.6,3.6,53,0.00,,OVC,0.00,VWS V14.01,2013-02-13 03:30:00,
2013-02-12 22:32:00,36.9,21.3,29.68,NNW,338,10.1,10.1,53,0.00,,OVC,0.00,VWS V14.01,2013-02-13 03:32:00,
2013-02-12 22:37:00,36.9,21.8,29.68,NNW,338,10.1,10.1,54,0.00,,OVC,0.00,VWS V14.01,2013-02-13 03:37:00,
2013-02-12 22:42:00,36.9,21.3,29.68,NW,315,2.7,3.1,53,0.00,,OVC,0.00,VWS V14.01,2013-02-13 03:42:00,
2013-02-12 22:47:00,36.9,20.9,29.68,WNW,292,6.0,6.0,52,0.00,,OVC,0.00,VWS V14.01,2013-02-13 03:47:00,
2013-02-12 22:52:00,36.9,21.3,29.71,NNW,338,3.1,6.0,53,0.00,,OVC,0.00,VWS V14.01,2013-02-13 03:52:00,
2013-02-12 22:58:00,36.9,21.3,29.71,NNW,338,3.1,3.1,53,0.00,,OVC,0.00,VWS V14.01,2013-02-13 03:58:00,
2013-02-12 23:00:00,36.9,20.9,29.71,NW,315,2.5,3.1,52,0.00,,OVC,0.00,VWS V14.01,2013-02-13 04:00:00,
2013-02-12 23:03:00,37.0,21.1,29.71,NNW,338,3.1,3.1,52,0.00,,OVC,0.00,VWS V14.01,2013-02-13 04:03:00,
2013-02-12 23:08:00,36.9,20.9,29.71,NNW,338,2.7,2.7,52,0.00,,OVC,0.00,VWS V14.01,2013-02-13 04:08:00,
2013-02-12 23:13:00,37.0,21.1,29.71,NW,315,2.9,4.9,52,0.00,,OVC,0.00,VWS V14.01,2013-02-13 04:13:00,
2013-02-12 23:18:00,36.9,20.9,29.71,NNW,338,4.0,4.0,52,0.00,,OVC,0.00,VWS V14.01,2013-02-13 04:18:00,
2013-02-12 23:23:00,36.9,20.9,29.71,WNW,292,3.4,4.0,52,0.00,,OVC,0.00,VWS V14.01,2013-02-13 04:23:00,
2013-02-12 23:28:00,36.9,20.4,29.71,NW,315,6.3,6.3,51,0.00,,OVC,0.00,VWS V14.01,2013-02-13 04:28:00,
2013-02-12 23:30:00,36.9,20.4,29.71,NW,315,6.3,6.3,51,0.00,,OVC,0.00,VWS V14.01,2013-02-13 04:30:00,
2013-02-12 23:33:00,36.9,20.9,29.71,NW,315,6.3,6.3,52,0.00,,OVC,0.00,VWS V14.01,2013-02-13 04:33:00,
2013-02-12 23:38:00,36.5,20.6,29.68,NNW,338,4.9,4.9,52,0.00,,OVC,0.00,VWS V14.01,2013-02-13 04:38:00,
2013-02-12 23:43:00,36.3,20.4,29.68,NNW,338,4.9,4.9,52,0.00,,OVC,0.00,VWS V14.01,2013-02-13 04:43:00,
2013-02-12 23:48:00,35.8,20.3,29.68,NNW,338,4.9,4.9,53,0.00,,OVC,0.00,VWS V14.01,2013-02-13 04:48:00,
2013-02-12 23:53:00,35.4,20.0,29.68,NNW,338,4.9,4.9,53,0.00,,OVC,0.00,VWS V14.01,2013-02-13 04:53:00,
2013-02-12 23:58:00,35.2,20.3,29.68,NNW,338,4.9,4.9,54,0.00,,OVC,0.00,VWS V14.01,2013-02-13 04:58:00,